Weather History for CYYJ - November, 2011

Change the Weather History Date:

Thursday, November 10, 2011

  Actual Average Record
Temperature  
Mean Temperature 46 °F -  
Max Temperature 55 °F 47 °F 57 °F (2004)
Min Temperature 37 °F 35 °F 28 °F (2012)
Degree Days  
Heating Degree Days 19    
Moisture  
Dew Point 42 °F    
Average Humidity 84    
Maximum Humidity 100    
Minimum Humidity 62    
Precipitation  
Precipitation 0.00 in 0.19 in - ()
Sea Level Pressure  
Sea Level Pressure 30.06 in    
Wind  
Wind Speed 2 mph ()    
Max Wind Speed 8 mph    
Max Gust Speed -    
Visibility 3.4 miles    
Events Fog    
Averages and records for this station are not official NWS values.
T = Trace of Precipitation, MM = Missing Value Source: Averaged Metar Reports

Daily Weather History Graph

Daily Weather History Graph

Search for Another Location

Airport or City:

Trip Planner

Search our weather history database for the weather conditions in past years. The results will help you decide how hot, cold, wet, or windy it might be!

Date:

Astronomy

Nov. 10, 2011 Rise Set
Actual Time 7:14 AM PST 4:40 PM PST
Civil Twilight 6:40 AM PST 5:14 PM PST
Nautical Twilight 6:02 AM PST 5:52 PM PST
Astronomical Twilight 5:25 AM PST 6:28 PM PST
Moon 4:26 PM PST (11/10) 7:16 AM PST (11/10)
Length of Visible Light 10h 34m
Length of Day
9h 26m
Full, 100% of the Moon is Illuminated
Nov 10
Full
Nov 10
Full
Nov 18
Last Quarter
Nov 24
New
Dec 2
First Quarter

Hourly Weather History & Observations

Time (PST) Temp. Windchill Dew Point Humidity Pressure Visibility Wind Dir Wind Speed Gust Speed Precip Events Conditions
12:00 AM 46.4 °F - 44.6 °F 93% 30.13 in 30.0 mi Calm Calm - N/A   Mostly Cloudy
1:00 AM 44.6 °F - 42.8 °F 93% 30.13 in 30.0 mi Calm Calm - N/A   Mostly Cloudy
2:00 AM 44.6 °F - 44.6 °F 100% 30.13 in 30.0 mi WNW 2.3 mph - N/A   Mostly Cloudy
3:00 AM 44.6 °F - 42.8 °F 93% 30.12 in 30.0 mi NE 2.3 mph - N/A   Mostly Cloudy
4:00 AM 43 °F - 42 °F 94% 30.12 in 28 mi NW 2.3 mph - -   Scattered Clouds
4:00 AM 42.8 °F 41.1 °F 42.8 °F 100% 30.12 in 30.0 mi NW 3.5 mph - N/A   Mostly Cloudy
5:00 AM 42.8 °F - 42.8 °F 100% 30.12 in 30.0 mi West 2.3 mph - N/A   Mostly Cloudy
6:00 AM 44.6 °F - 42.8 °F 93% 30.12 in 30.0 mi Calm Calm - N/A   Overcast
7:00 AM 46.4 °F - 39.2 °F 76% 30.10 in 30.0 mi Calm Calm - N/A   Mostly Cloudy
8:00 AM 48.2 °F - 37.4 °F 66% 30.11 in 30.0 mi SE 5.8 mph - N/A   Mostly Cloudy
9:00 AM 48.2 °F - 39.2 °F 71% 30.11 in 30.0 mi SE 4.6 mph - N/A   Mostly Cloudy
10:00 AM 50 °F - 41 °F 63% 30.10 in 28 mi ESE 6.9 mph - -   Scattered Clouds
10:00 AM 50.0 °F - 41.0 °F 71% 30.10 in 30.0 mi ESE 6.9 mph - N/A   Mostly Cloudy
11:00 AM 50.0 °F - 42.8 °F 76% 30.11 in 30.0 mi SE 8.1 mph - N/A   Mostly Cloudy
12:00 PM 50.0 °F - 44.6 °F 82% 30.09 in 30.0 mi ESE 4.6 mph - N/A   Scattered Clouds
1:00 PM 53.6 °F - 44.6 °F 72% 30.08 in 30.0 mi East 4.6 mph - N/A   Scattered Clouds
2:00 PM 53.6 °F - 42.8 °F 67% 30.05 in 30.0 mi ESE 6.9 mph - N/A   Mostly Cloudy
3:00 PM 55.4 °F - 42.8 °F 63% 30.03 in 30.0 mi ESE 4.6 mph - N/A   Mostly Cloudy
4:00 PM 52 °F - 43 °F 62% 30.02 in 28 mi ESE 4.6 mph - -   Scattered Clouds
4:00 PM 51.8 °F - 42.8 °F 71% 30.02 in 30.0 mi ESE 4.6 mph - N/A   Scattered Clouds
5:00 PM 46.4 °F 44.3 °F 42.8 °F 87% 30.01 in 30.0 mi East 4.6 mph - N/A   Partly Cloudy
6:00 PM 44.6 °F - 41.0 °F 87% 29.99 in 30.0 mi West 2.3 mph - N/A   Partly Cloudy
7:00 PM 42.8 °F - 39.2 °F 87% 29.99 in 30.0 mi Calm Calm - N/A   Partly Cloudy
8:00 PM 41.0 °F 36.4 °F 39.2 °F 93% 29.98 in 20.0 mi West 6.9 mph - N/A Fog Shallow Fog
8:40 PM 41.0 °F - - N/A% - 3.0 mi West 2.3 mph - N/A   Partly Cloudy
9:00 PM 41.0 °F - 39.2 °F 93% 29.95 in 1.5 mi Calm Calm - N/A   Partly Cloudy
9:15 PM 39.2 °F - - N/A% - 10.0 mi Calm Calm - N/A Fog Shallow Fog
9:24 PM 39.2 °F - - N/A% - 1.0 mi Calm Calm - N/A   Partly Cloudy
9:46 PM 39.2 °F - - N/A% - 4.0 mi Calm Calm - N/A   Scattered Clouds
10:00 PM 38 °F - 37 °F 94% 29.94 in 1 mi Calm Calm - -   Mist
10:00 PM 37.4 °F - 37.4 °F 100% 29.94 in 1.0 mi Calm Calm - N/A   Scattered Clouds
10:10 PM 37.4 °F - - N/A% - 0.5 mi Calm Calm - N/A Fog Fog
10:15 PM 37.4 °F - - N/A% - 0.2 mi Calm Calm - N/A Fog Fog
10:35 PM 37.4 °F - - N/A% - 0.2 mi Calm Calm - N/A Fog Fog
11:00 PM 42.8 °F - 41.0 °F 93% 29.92 in 0.1 mi Calm Calm - N/A Fog Fog
11:33 PM 39.2 °F - - N/A% - 0.6 mi Calm Calm - N/A   Mostly Cloudy
11:47 PM 39.2 °F 37.0 °F - N/A% - 5.0 mi WSW 3.5 mph - N/A   Mostly Cloudy